EW3721 Weather Reports


Display with metric or nautical units.
time (UTC)temp
F
wind
direction
speed
MPH
gust
MPH
rain 1hr
in
rain 24hr
in
rain mn
in
humidity
%
barometer
mb
20210117190143 42 226 0.0 6.0 0.00 0.00 0.00 56 1001.4
20210117185127 43 205 1.0 10.0 0.00 0.00 0.00 55 1001.3
20210117184132 43 212 5.0 16.0 0.00 0.00 0.00 55 1001.3
20210117183127 43 223 0.0 16.0 0.00 0.00 0.00 55 1001.0
20210117182131 44 175 2.0 9.0 0.00 0.00 0.00 54 1000.8
20210117181131 44 221 0.0 9.0 0.00 0.00 0.00 53 1000.7
20210117180130 44 142 1.0 18.0 0.00 0.00 0.00 52 1000.6
20210117175131 44 229 3.0 16.0 0.00 0.00 0.00 54 1000.4
20210117174128 44 195 1.0 12.0 0.00 0.00 0.00 54 1000.5
20210117173127 44 199 0.0 7.0 0.00 0.00 0.00 55 1000.4
20210117172143 43 205 0.0 10.0 0.00 0.00 0.00 54 1000.7
20210117171129 43 235 0.0 10.0 0.00 0.00 0.00 55 1000.7
20210117170134 43 165 0.0 10.0 0.00 0.00 0.00 54 1000.9
20210117165128 43 219 2.0 15.0 0.00 0.00 0.00 56 1001.0
20210117164129 42 255 0.0 10.0 0.00 0.00 0.00 56 1001.1
20210117163127 42 126 1.0 5.0 0.00 0.00 0.00 57 1001.1
20210117162128 42 234 0.0 6.0 0.00 0.00 0.00 56 1001.6
20210117161128 41 254 0.0 13.0 0.00 0.00 0.00 57 1001.6
20210117160129 41 222 2.0 13.0 0.00 0.00 0.00 57 1001.7
20210117155136 41 207 1.0 10.0 0.00 0.00 0.00 58 1001.6
20210117154129 42 231 0.0 14.0 0.00 0.00 0.00 57 1001.6
20210117153128 42 249 1.0 16.0 0.00 0.00 0.00 59 1001.3
20210117152127 42 235 2.0 12.0 0.00 0.00 0.00 60 1001.4
20210117151127 41 248 1.0 17.0 0.00 0.01 0.00 61 1001.3
20210117150128 41 224 3.0 20.0 0.00 0.01 0.00 61 1001.3
20210117145133 40 242 2.0 10.0 0.00 0.01 0.00 62 1001.1
20210117144129 40 157 1.0 9.0 0.00 0.01 0.00 62 1000.9
20210117143128 39 201 0.0 0.0 0.00 0.03 0.00 66 1000.8
20210117142127 39 205 0.0 3.0 0.00 0.04 0.00 67 1000.9
20210117141131 38 240 1.0 6.0 0.00 0.04 0.00 67 1000.7
20210117140131 38 188 0.0 0.0 0.00 0.05 0.00 69 1000.8
20210117135126 37 182 0.0 1.0 0.00 0.05 0.00 71 1000.7
20210117134127 36 212 0.0 3.0 0.00 0.05 0.00 73 1000.7
20210117133134 35 217 0.0 1.0 0.00 0.05 0.00 74 1000.6
20210117132128 34 252 1.0 6.0 0.00 0.05 0.00 75 1000.6
20210117131132 34 206 0.0 0.0 0.00 0.05 0.00 75 1000.4
20210117130127 33 190 0.0 3.0 0.00 0.05 0.00 76 1000.4
20210117125128 33 182 0.0 1.0 0.00 0.05 0.00 75 1000.2
20210117124127 33 174 0.0 0.0 0.00 0.06 0.00 74 1000.2
20210117123129 34 217 0.0 0.0 0.00 0.07 0.00 74 1000.1
20210117122128 34 195 0.0 5.0 0.00 0.07 0.00 74 1000.1
20210117121128 34 227 0.0 2.0 0.00 0.09 0.00 73 1000.1
20210117120136 34 203 0.0 1.0 0.00 0.11 0.00 73 999.9
20210117115128 34 211 0.0 0.0 0.00 0.14 0.00 74 999.8
20210117114148 34 205 0.0 0.0 0.00 0.17 0.00 74 999.8
20210117113152 34 184 0.0 0.0 0.00 0.21 0.00 74 999.8
20210117112128 34 126 0.0 3.0 0.00 0.23 0.00 74 999.6
20210117111154 34 219 0.0 5.0 0.00 0.26 0.00 73 999.4
20210117110133 34 204 0.0 3.0 0.00 0.30 0.00 74 999.2
20210117105130 34 166 0.0 1.0 0.00 0.33 0.00 74 999.1
20210117104136 34 164 0.0 3.0 0.00 0.35 0.00 74 999.1
20210117103126 34 197 1.0 5.0 0.00 0.37 0.00 74 999.0
20210117102135 34 204 0.0 3.0 0.00 0.38 0.00 74 999.0
20210117101126 34 184 0.0 0.0 0.00 0.40 0.00 74 998.9
20210117100135 35 190 0.0 0.0 0.00 0.41 0.00 74 998.7
20210117095127 35 178 0.0 0.0 0.00 0.43 0.00 73 998.6
20210117094126 35 205 0.0 2.0 0.00 0.47 0.00 74 998.6
20210117093125 34 205 0.0 3.0 0.00 0.51 0.00 75 998.6
20210117092126 34 209 0.0 1.0 0.00 0.55 0.00 76 998.4
20210117091128 34 196 0.0 6.0 0.00 0.59 0.00 76 998.3
20210117090127 34 192 0.0 10.0 0.00 0.61 0.00 76 998.3
20210117085126 34 187 0.0 5.0 0.00 0.63 0.00 76 998.2
20210117084125 35 201 0.0 0.0 0.00 0.66 0.00 76 998.1
20210117083126 35 202 0.0 0.0 0.00 0.68 0.00 76 997.9
20210117082125 35 178 0.0 3.0 0.00 0.70 0.00 76 997.7
20210117081125 35 184 2.0 9.0 0.00 0.71 0.00 75 997.7
20210117080129 35 215 1.0 5.0 0.00 0.72 0.00 75 997.7
20210117075125 35 210 0.0 0.0 0.00 0.72 0.00 75 997.7
20210117074125 35 195 0.0 6.0 0.00 0.73 0.00 75 997.7
20210117073126 35 240 1.0 10.0 0.00 0.73 0.00 75 997.5
20210117072126 36 186 0.0 6.0 0.00 0.74 0.00 74 997.3
20210117071127 36 201 1.0 7.0 0.00 0.74 0.00 74 997.2
20210117070127 36 217 3.0 10.0 0.00 0.75 0.00 74 997.0
20210117065125 36 261 0.0 1.0 0.00 0.78 0.00 74 996.9
20210117064124 36 219 1.0 10.0 0.00 0.82 0.00 75 996.7
20210117063126 36 225 0.0 7.0 0.00 0.85 0.00 75 996.5
20210117062125 36 222 0.0 5.0 0.00 0.85 0.00 76 996.3
20210117061124 36 232 2.0 8.0 0.00 0.86 0.00 76 996.2
20210117060134 36 193 3.0 10.0 0.00 0.86 0.00 77 995.9
20210117055125 36 211 1.0 9.0 0.00 0.87 0.00 77 995.7
20210117054126 35 228 0.0 8.0 0.00 0.87 0.00 78 995.7
20210117053126 35 159 0.0 9.0 0.00 0.87 0.00 78 995.4
20210117052128 35 191 0.0 10.0 0.00 0.88 0.00 78 995.3
20210117051125 35 217 1.0 7.0 0.00 0.91 0.00 78 995.2
20210117050132 35 212 1.0 5.0 0.00 0.94 0.00 78 995.0
20210117045128 35 225 0.0 8.0 0.00 0.94 0.94 78 995.0
20210117044125 35 246 0.0 8.0 0.00 0.94 0.94 77 994.8
20210117043127 35 226 0.0 0.0 0.00 0.94 0.94 77 994.7
20210117042124 35 179 0.0 9.0 0.00 0.95 0.94 76 994.7
20210117041125 35 254 0.0 3.0 0.00 0.97 0.94 76 994.7
20210117040125 35 219 0.0 2.0 0.00 1.00 0.94 75 994.7
20210117035126 35 147 0.0 1.0 0.00 1.00 0.94 75 994.7
20210117034130 35 240 0.0 5.0 0.00 1.00 0.94 76 994.6
20210117033124 35 0 0.0 5.0 0.00 1.00 0.94 75 994.7
20210117032124 36 249 0.0 6.0 0.00 1.00 0.94 76 994.7
20210117031126 36 227 0.0 3.0 0.00 1.00 0.94 76 994.8
20210117030125 36 223 0.0 1.0 0.00 1.00 0.94 76 994.9
20210117025124 36 161 0.0 1.0 0.00 1.00 0.94 78 994.9
20210117024124 36 225 1.0 8.0 0.00 1.00 0.94 78 994.8
20210117023126 36 207 1.0 3.0 0.00 1.00 0.94 79 994.9
20210117022125 37 249 0.0 0.0 0.00 1.00 0.94 80 995.0
20210117021124 37 295 0.0 1.0 0.00 1.00 0.94 80 995.0
20210117020127 38 198 0.0 5.0 0.00 1.00 0.94 79 994.9
20210117015126 38 219 0.0 2.0 0.00 1.00 0.94 79 994.8
20210117014129 38 222 0.0 8.0 0.00 1.00 0.94 79 994.9
20210117013125 39 221 0.0 6.0 0.00 1.00 0.94 78 994.8
20210117012124 39 238 0.0 6.0 0.00 1.00 0.94 78 994.8
20210117011126 39 232 1.0 9.0 0.00 1.00 0.94 77 994.8
20210117010140 40 253 0.0 8.0 0.00 1.00 0.94 77 994.8
20210117005128 40 239 0.0 0.0 0.00 1.00 0.94 78 994.7
20210117004124 41 5 0.0 0.0 0.00 1.00 0.94 79 994.7
20210117003125 41 234 0.0 0.0 0.00 1.00 0.94 80 994.7
20210117002124 41 226 0.0 9.0 0.00 1.00 0.94 79 994.7
20210117001123 41 214 2.0 7.0 0.00 1.00 0.94 80 994.6
20210117000132 41 256 0.0 16.0 0.00 1.00 0.94 80 994.6
20210116235126 41 225 0.0 12.0 0.00 1.00 0.94 81 994.5
20210116234126 41 225 1.0 8.0 0.00 1.00 0.94 82 994.6
20210116233131 42 220 1.0 5.0 0.00 1.00 0.94 84 994.5
20210116232123 42 183 0.0 5.0 0.00 1.00 0.94 84 994.4
20210116231125 42 214 0.0 5.0 0.00 1.00 0.94 84 994.4
20210116230124 42 180 1.0 5.0 0.00 1.00 0.94 84 994.2
20210116225124 42 209 1.0 3.0 0.00 1.00 0.94 83 994.1
20210116224126 42 229 1.0 5.0 0.00 1.00 0.94 84 994.2
20210116223125 42 177 0.0 3.0 0.00 1.00 0.94 83 994.1
20210116222132 42 166 0.0 5.0 0.00 1.00 0.94 83 994.0
20210116221126 43 171 0.0 3.0 0.00 1.00 0.94 83 994.0
20210116220124 43 205 0.0 3.0 0.00 1.00 0.94 82 993.9
20210116215125 43 184 0.0 8.0 0.00 1.00 0.94 82 993.9
20210116214124 44 225 0.0 8.0 0.00 1.00 0.94 83 993.8
20210116213126 44 211 0.0 8.0 0.00 1.00 0.94 82 993.7
20210116212133 44 248 0.0 6.0 0.00 1.00 0.94 83 993.6
20210116211125 44 195 1.0 3.0 0.00 1.00 0.94 83 993.5
20210116210128 44 187 0.0 1.0 0.00 1.00 0.94 83 993.6
20210116205127 44 200 0.0 3.0 0.00 1.00 0.94 83 993.6
20210116204127 45 182 0.0 5.0 0.00 1.00 0.94 83 993.6
20210116203123 45 207 1.0 6.0 0.00 1.00 0.94 83 993.6
20210116202124 45 165 0.0 10.0 0.00 1.00 0.94 83 993.5
20210116201140 45 187 0.0 0.0 0.00 1.00 0.94 84 993.5
20210116200157 45 184 0.0 0.0 0.00 1.00 0.94 85 993.5
20210116195134 45 185 0.0 0.0 0.00 1.00 0.94 86 993.5
20210116194126 44 204 0.0 0.0 0.00 1.00 0.94 87 993.6
20210116193127 44 159 0.0 5.0 0.00 1.00 0.94 87 993.6
20210116192128 44 190 2.0 7.0 0.00 1.00 0.94 87 993.6
20210116191132 44 209 0.0 5.0 0.00 1.00 0.94 89 993.7